,,Stat1,,Stat2,,Stat3,,Stat4,,Wind1,,Wind1,
time,status,PR1M_SUM,status,RH1M_AVG,status,SR1M_AVG,status,TA1M_AVG,status,W1dAve1m,status,W1sAve1m,
1999-11-24, 00:01:00,VALID,0,VALID,99.4814,VALID,-0.101885,VALID,19.4358,VALID,144,VALID,0,
1999-11-24, 00:02:00,VALID,0,VALID,99.4611,VALID,-0.0849042,VALID,19.4393,VALID,144,VALID,0.0388514,
1999-11-24, 00:03:00,VALID,0,VALID,99.4293,VALID,-0.101885,VALID,19.4525,VALID,144,VALID,0,
1999-11-24, 00:04:00,VALID,0,VALID,99.4268,VALID,-0.101885,VALID,19.4622,VALID,144,VALID,0,
1999-11-24, 00:05:01,VALID,0,VALID,99.428,VALID,0.0339617,VALID,19.4868,VALID,144,VALID,0,
1999-11-24, 00:06:00,VALID,0,VALID,99.3861,VALID,0.0509425,VALID,19.4764,VALID,144,VALID,0,
1999-11-24, 00:07:00,VALID,0,VALID,99.2971,VALID,0.0339617,VALID,19.4607,VALID,144,VALID,0,
1999-11-24, 00:08:00,VALID,0,VALID,99.2793,VALID,0.0339617,VALID,19.4642,VALID,144,VALID,0.00971799,
1999-11-24, 00:09:00,VALID,0,VALID,99.2246,VALID,0.0169808,VALID,19.4545,VALID,144,VALID,0.885417,
1999-11-24, 00:10:00,VALID,0,VALID,99.1279,VALID,0.0169808,VALID,19.4344,VALID,146,VALID,0.946289,
1999-11-24, 00:11:00,VALID,0,VALID,99.1089,VALID,0.0509425,VALID,19.4224,VALID,145,VALID,0.925887,
1999-11-24, 00:12:00,VALID,0,VALID,99.1343,VALID,0.0339617,VALID,19.412,VALID,129,VALID,0.700802,
1999-11-24, 00:13:00,VALID,0,VALID,99.1445,VALID,0.0679233,VALID,19.409,VALID,138,VALID,0.869665,
1999-11-24, 00:14:00,VALID,0,VALID,99.1559,VALID,0.0169808,VALID,19.4025,VALID,134,VALID,0.897964,
1999-11-24, 00:15:00,VALID,0,VALID,99.2157,VALID,0.0169808,VALID,19.3993,VALID,141,VALID,0.640224,
1999-11-24, 00:16:01,VALID,0,VALID,99.2373,VALID,0.0339617,VALID,19.4087,VALID,121,VALID,0.596706,
1999-11-24, 00:17:00,VALID,0,VALID,99.2742,VALID,0.0169808,VALID,19.4058,VALID,121,VALID,0.159334,
1999-11-24, 00:18:00,VALID,0,VALID,99.3021,VALID,0.0169808,VALID,19.4127,VALID,129,VALID,0.199113,
1999-11-24, 00:19:00,VALID,0,VALID,99.3161,VALID,0,VALID,19.4289,VALID,137,VALID,0.00637336,
1999-11-24, 00:20:00,VALID,0,VALID,99.3581,VALID,0.0169808,VALID,19.4386,VALID,118,VALID,0.105134,
1999-11-24, 00:21:00,VALID,0,VALID,99.3835,VALID,0.0169808,VALID,19.4408,VALID,99,VALID,0.649089,
1999-11-24, 00:22:00,VALID,0,VALID,99.3835,VALID,0.0509425,VALID,19.454,VALID,101,VALID,0.719172,
1999-11-24, 00:23:00,VALID,0,VALID,99.3861,VALID,0.0679233,VALID,19.4478,VALID,97,VALID,0.749178,
1999-11-24, 00:24:00,VALID,0,VALID,99.3734,VALID,0.0169808,VALID,19.4082,VALID,93,VALID,0.7125,
1999-11-24, 00:25:00,VALID,0,VALID,99.3912,VALID,0.0509425,VALID,19.4251,VALID,101,VALID,0.669727,
1999-11-24, 00:26:00,VALID,0,VALID,99.4293,VALID,0.0679233,VALID,19.4284,VALID,86,VALID,0.710515,
1999-11-24, 00:27:00,VALID,0,VALID,99.4675,VALID,0,VALID,19.4316,VALID,76,VALID,0.564967,
1999-11-24, 00:28:00,VALID,0,VALID,99.4547,VALID,0,VALID,19.4284,VALID,60,VALID,0.63457,
1999-11-24, 00:29:00,VALID,0,VALID,99.47,VALID,0,VALID,19.4152,VALID,54,VALID,0.629557,
1999-11-24, 00:30:00,VALID,0,VALID,99.4891,VALID,0,VALID,19.4117,VALID,47,VALID,0.582732,
1999-11-24, 00:31:00,VALID,0,VALID,99.5259,VALID,0.0849042,VALID,19.4217,VALID,50,VALID,0.236486,
1999-11-24, 00:32:00,VALID,0,VALID,99.5603,VALID,0.0339617,VALID,19.4281,VALID,58,VALID,0,
1999-11-24, 00:33:00,VALID,0,VALID,99.5946,VALID,0.0339617,VALID,19.4605,VALID,101,VALID,0,
1999-11-24, 00:34:00,VALID,0,VALID,99.6277,VALID,0.0679233,VALID,19.457,VALID,117,VALID,0,
1999-11-24, 00:35:00,VALID,0,VALID,99.6061,VALID,0.0339617,VALID,19.4411,VALID,122,VALID,0,
1999-11-24, 00:36:00,VALID,0,VALID,99.5972,VALID,0.0509425,VALID,19.4286,VALID,119,VALID,0,
1999-11-24, 00:37:00,VALID,0,VALID,99.601,VALID,0.0339617,VALID,19.4023,VALID,129,VALID,0,
1999-11-24, 00:38:00,VALID,0,VALID,99.6073,VALID,0.0339617,VALID,19.3928,VALID,108,VALID,0,
1999-11-24, 00:39:00,VALID,0,VALID,99.6302,VALID,0.0339617,VALID,19.3896,VALID,101,VALID,0,
1999-11-24, 00:40:00,VALID,0,VALID,99.6824,VALID,0.0679233,VALID,19.4087,VALID,107,VALID,0,
1999-11-24, 00:41:00,VALID,0,VALID,99.7103,VALID,0.0679233,VALID,19.412,VALID,107,VALID,0,
1999-11-24, 00:42:00,VALID,0,VALID,99.6709,VALID,0.0509425,VALID,19.3826,VALID,115,VALID,0,
1999-11-24, 00:43:00,VALID,0,VALID,99.676,VALID,0.0169808,VALID,19.3801,VALID,99,VALID,0,
1999-11-24, 00:44:00,VALID,0,VALID,99.6646,VALID,0.0169808,VALID,19.3545,VALID,106,VALID,0,
1999-11-24, 00:45:00,VALID,0,VALID,99.704,VALID,0.0509425,VALID,19.354,VALID,96,VALID,0,
1999-11-24, 00:46:00,VALID,0,VALID,99.7497,VALID,0,VALID,19.3545,VALID,91,VALID,0.688133,
1999-11-24, 00:47:00,VALID,0,VALID,99.765,VALID,0.0339617,VALID,19.3411,VALID,88,VALID,0.98522,
1999-11-24, 00:48:00,VALID,0,VALID,99.779,VALID,0.0509425,VALID,19.3312,VALID,84,VALID,1.06826,
1999-11-24, 00:49:00,VALID,0,VALID,99.7739,VALID,0.0339617,VALID,19.3351,VALID,82,VALID,0.977796,
1999-11-24, 00:50:00,VALID,0,VALID,99.7879,VALID,0,VALID,19.3379,VALID,94,VALID,0.963542,
1999-11-24, 00:51:00,VALID,0,VALID,99.8121,VALID,0.0509425,VALID,19.3409,VALID,97,VALID,0.917969,
1999-11-24, 00:52:00,VALID,0,VALID,99.8006,VALID,0.0339617,VALID,19.3379,VALID,93,VALID,1.05187,
1999-11-24, 00:53:00,VALID,0,VALID,99.8032,VALID,0.0509425,VALID,19.3274,VALID,85,VALID,0.952553,
1999-11-24, 00:54:00,VALID,0,VALID,99.8019,VALID,0.0679233,VALID,19.321,VALID,86,VALID,0.898003,
1999-11-24, 00:55:00,VALID,0,VALID,99.8057,VALID,0.0509425,VALID,19.3416,VALID,85,VALID,0.852148,
1999-11-24, 00:56:00,VALID,0,VALID,99.8044,VALID,0.0339617,VALID,19.3346,VALID,95,VALID,0.842061,
1999-11-24, 00:57:00,VALID,0,VALID,99.8082,VALID,0.0339617,VALID,19.351,VALID,93,VALID,0.801731,
1999-11-24, 00:58:00,VALID,0,VALID,99.7879,VALID,0.0339617,VALID,19.3446,VALID,76,VALID,0.740282,
1999-11-24, 00:59:00,VALID,0,VALID,99.7765,VALID,0.0339617,VALID,19.3346,VALID,85,VALID,0.275568,
1999-11-24, 01:00:01,VALID,0,VALID,99.7815,VALID,0,VALID,19.3371,VALID,64,VALID,0.196715,
1999-11-24, 01:01:00,VALID,0,VALID,99.7637,VALID,0.0169808,VALID,19.3446,VALID,313,VALID,0.53125,
1999-11-24, 01:02:00,VALID,0,VALID,99.7548,VALID,0.0509425,VALID,19.3446,VALID,315,VALID,0.541118,
1999-11-24, 01:03:00,VALID,0,VALID,99.7574,VALID,0.0169808,VALID,19.354,VALID,316,VALID,0.46516,
1999-11-24, 01:04:00,VALID,0,VALID,99.7688,VALID,0.0509425,VALID,19.3535,VALID,315,VALID,0.132813,
1999-11-24, 01:05:00,VALID,0,VALID,99.7688,VALID,-0.0339617,VALID,19.352,VALID,304,VALID,0,
1999-11-24, 01:06:00,VALID,0,VALID,99.7714,VALID,-0.0509425,VALID,19.3458,VALID,295,VALID,0,
1999-11-24, 01:07:00,VALID,0,VALID,99.7739,VALID,-0.0169808,VALID,19.3657,VALID,294,VALID,0,
1999-11-24, 01:08:00,VALID,0,VALID,99.7561,VALID,-0.0849042,VALID,19.3592,VALID,294,VALID,0,
1999-11-24, 01:09:00,VALID,0,VALID,99.7561,VALID,-0.0849042,VALID,19.349,VALID,294,VALID,0,
1999-11-24, 01:10:00,VALID,0,VALID,99.7637,VALID,-0.0679233,VALID,19.3557,VALID,294,VALID,0,
1999-11-24, 01:11:00,VALID,0,VALID,99.7345,VALID,-0.0849042,VALID,19.3493,VALID,296,VALID,0,
1999-11-24, 01:12:00,VALID,0,VALID,99.7434,VALID,-0.0849042,VALID,19.356,VALID,303,VALID,0,
1999-11-24, 01:13:00,VALID,0,VALID,99.7548,VALID,-0.0339617,VALID,19.3525,VALID,303,VALID,0,
1999-11-24, 01:14:00,VALID,0,VALID,99.7574,VALID,-0.0679233,VALID,19.3523,VALID,302,VALID,0,
1999-11-24, 01:15:00,VALID,0,VALID,99.7574,VALID,-0.0679233,VALID,19.3525,VALID,217,VALID,0,
1999-11-24, 01:16:00,VALID,0,VALID,99.7815,VALID,-0.101885,VALID,19.3585,VALID,173,VALID,0,
1999-11-24, 01:17:00,VALID,0,VALID,99.7472,VALID,-0.0849042,VALID,19.3527,VALID,144,VALID,0.556836,
1999-11-24, 01:18:00,VALID,0,VALID,99.6836,VALID,-0.101885,VALID,19.3075,VALID,125,VALID,1.04748,
1999-11-24, 01:19:00,VALID,0,VALID,99.6582,VALID,-0.0849042,VALID,19.2816,VALID,115,VALID,1.2046,
1999-11-24, 01:20:00,VALID,0,VALID,99.6289,VALID,0.0169808,VALID,19.2377,VALID,114,VALID,1.24432,
1999-11-24, 01:21:00,VALID,0,VALID,99.6391,VALID,0.0849042,VALID,19.2307,VALID,113,VALID,1.01563,
1999-11-24, 01:22:01,VALID,0,VALID,99.6226,VALID,0.0169808,VALID,19.2247,VALID,120,VALID,1.15666,
1999-11-24, 01:23:00,VALID,0,VALID,99.6175,VALID,0.0509425,VALID,19.2116,VALID,129,VALID,0.953336,
1999-11-24, 01:24:00,VALID,0,VALID,99.6022,VALID,0.0509425,VALID,19.225,VALID,131,VALID,0.964614,
1999-11-24, 01:25:00,VALID,0,VALID,99.5933,VALID,0.0509425,VALID,19.2215,VALID,146,VALID,1.06191,
1999-11-24, 01:26:00,VALID,0,VALID,99.5654,VALID,0.0679233,VALID,19.2347,VALID,139,VALID,0.677426,
1999-11-24, 01:27:00,VALID,0,VALID,99.5501,VALID,0.0169808,VALID,19.2252,VALID,145,VALID,0.812922,
1999-11-24, 01:28:00,VALID,0,VALID,99.5132,VALID,0,VALID,19.2086,VALID,158,VALID,0.879207,
1999-11-24, 01:29:00,VALID,0,VALID,99.4458,VALID,0.0169808,VALID,19.1989,VALID,170,VALID,1.00043,
1999-11-24, 01:30:00,VALID,0,VALID,99.4649,VALID,0.0849042,VALID,19.1989,VALID,176,VALID,0.884215,
1999-11-24, 01:31:00,VALID,0,VALID,99.5069,VALID,0.0169808,VALID,19.1889,VALID,178,VALID,0.90815,
1999-11-24, 01:32:00,VALID,0,VALID,99.5488,VALID,0.0339617,VALID,19.1931,VALID,174,VALID,0.930743,
1999-11-24, 01:33:01,VALID,0,VALID,99.573,VALID,0.0679233,VALID,19.1732,VALID,175,VALID,0.685033,
1999-11-24, 01:34:00,VALID,0,VALID,99.6099,VALID,0.0679233,VALID,19.17,VALID,162,VALID,0.665707,
1999-11-24, 01:35:00,VALID,0,VALID,99.6289,VALID,-0.0509425,VALID,19.1682,VALID,163,VALID,0.681858,
1999-11-24, 01:36:00,VALID,0,VALID,99.6595,VALID,-0.101885,VALID,19.1555,VALID,157,VALID,0.626439,
1999-11-24, 01:37:00,VALID,0,VALID,99.6722,VALID,-0.101885,VALID,19.1521,VALID,157,VALID,0.51671,
1999-11-24, 01:38:00,VALID,0,VALID,99.7091,VALID,-0.101885,VALID,19.1456,VALID,152,VALID,0.372142,
1999-11-24, 01:39:00,VALID,0,VALID,99.718,VALID,-0.101885,VALID,19.1327,VALID,155,VALID,0,
1999-11-24, 01:40:00,VALID,0,VALID,99.7218,VALID,-0.0849042,VALID,19.1361,VALID,163,VALID,0,
1999-11-24, 01:41:00,VALID,0,VALID,99.7345,VALID,-0.0679233,VALID,19.1167,VALID,173,VALID,0,
1999-11-24, 01:42:00,VALID,0,VALID,99.7497,VALID,-0.101885,VALID,19.1036,VALID,201,VALID,0,
1999-11-24, 01:43:01,VALID,0,VALID,99.7675,VALID,-0.0849042,VALID,19.1038,VALID,205,VALID,0,
1999-11-24, 01:44:01,VALID,0,VALID,99.7714,VALID,-0.0849042,VALID,19.1008,VALID,211,VALID,0,
1999-11-24, 01:45:00,VALID,0,VALID,99.7765,VALID,-0.101885,VALID,19.1006,VALID,212,VALID,0,
1999-11-24, 01:46:00,VALID,0,VALID,99.7625,VALID,-0.0849042,VALID,19.0745,VALID,206,VALID,0,
1999-11-24, 01:47:00,VALID,0,VALID,99.7637,VALID,-0.101885,VALID,19.0645,VALID,203,VALID,0,
1999-11-24, 01:48:00,VALID,0,VALID,99.7841,VALID,-0.0849042,VALID,19.0648,VALID,197,VALID,0,
1999-11-24, 01:49:00,VALID,0,VALID,99.8171,VALID,-0.101885,VALID,19.0948,VALID,191,VALID,0,
1999-11-24, 01:50:00,VALID,0,VALID,99.8171,VALID,-0.0169808,VALID,19.0964,VALID,191,VALID,0,
1999-11-24, 01:51:00,VALID,0,VALID,99.8248,VALID,0,VALID,19.1058,VALID,191,VALID,0,
1999-11-24, 01:52:00,VALID,0,VALID,99.793,VALID,0,VALID,19.0994,VALID,191,VALID,0,
1999-11-24, 01:53:00,VALID,0,VALID,99.7955,VALID,0.0169808,VALID,19.0959,VALID,191,VALID,0,
1999-11-24, 01:54:00,VALID,0,VALID,99.807,VALID,0.0339617,VALID,19.0892,VALID,191,VALID,0,
1999-11-24, 01:55:01,VALID,0,VALID,99.7815,VALID,0.0169808,VALID,19.086,VALID,193,VALID,0,
1999-11-24, 01:56:00,VALID,0,VALID,99.7993,VALID,0,VALID,19.0733,VALID,216,VALID,0,
1999-11-24, 01:57:00,VALID,0,VALID,99.7917,VALID,0.0169808,VALID,19.073,VALID,222,VALID,0,
1999-11-24, 01:58:00,VALID,0,VALID,99.779,VALID,0.0169808,VALID,19.0638,VALID,228,VALID,0,
1999-11-24, 01:59:00,VALID,0,VALID,99.7765,VALID,0,VALID,19.0502,VALID,224,VALID,0.215278,
1999-11-24, 02:00:00,VALID,0,VALID,99.7968,VALID,0.0339617,VALID,19.0539,VALID,227,VALID,0.910256,
1999-11-24, 02:01:00,VALID,0,VALID,99.8171,VALID,0.0509425,VALID,19.0504,VALID,226,VALID,1.00296,
1999-11-24, 02:02:00,VALID,0,VALID,99.8426,VALID,0.0169808,VALID,19.0569,VALID,221,VALID,0.965039,
1999-11-24, 02:03:00,VALID,0,VALID,99.8629,VALID,0,VALID,19.0668,VALID,221,VALID,0.896635,
1999-11-24, 02:04:00,VALID,0,VALID,99.9354,VALID,0,VALID,19.0733,VALID,218,VALID,0.869721,
1999-11-24, 02:05:00,VALID,0,VALID,99.9647,VALID,0,VALID,19.07,VALID,221,VALID,0.747159,
1999-11-24, 02:06:01,VALID,0,VALID,99.9774,VALID,0.0169808,VALID,19.0864,VALID,221,VALID,0.711349,
1999-11-24, 02:07:00,VALID,0,VALID,99.9858,VALID,0,VALID,19.08,VALID,217,VALID,0.846834,
1999-11-24, 02:08:00,VALID,0,VALID,99.9888,VALID,0,VALID,19.0797,VALID,205,VALID,0.701014,
1999-11-24, 02:09:00,VALID,0,VALID,99.987,VALID,0,VALID,19.077,VALID,199,VALID,1.05928,
1999-11-24, 02:10:00,VALID,0,VALID,99.999,VALID,0.0169808,VALID,19.0733,VALID,212,VALID,0.848633,
1999-11-24, 02:11:00,VALID,0,VALID,100,VALID,0,VALID,19.0666,VALID,236,VALID,0.575041,
1999-11-24, 02:12:00,VALID,0,VALID,100,VALID,0,VALID,19.0733,VALID,226,VALID,1.06736,
1999-11-24, 02:13:00,VALID,0,VALID,100,VALID,0.0169808,VALID,19.0862,VALID,228,VALID,0.847756,
1999-11-24, 02:14:00,VALID,0,VALID,100,VALID,0.0339617,VALID,19.0832,VALID,225,VALID,0.636285,
1999-11-24, 02:15:00,VALID,0,VALID,100,VALID,0,VALID,19.0927,VALID,219,VALID,0.810096,
1999-11-24, 02:16:00,VALID,0,VALID,100,VALID,0,VALID,19.0862,VALID,228,VALID,0.824535,
1999-11-24, 02:17:00,VALID,0,VALID,100,VALID,0,VALID,19.0969,VALID,219,VALID,0.904772,
1999-11-24, 02:18:00,VALID,0,VALID,100,VALID,-0.0169808,VALID,19.0864,VALID,215,VALID,1.08512,
1999-11-24, 02:19:00,VALID,0,VALID,100,VALID,-0.0169808,VALID,19.0929,VALID,224,VALID,1.21094,
1999-11-24, 02:20:00,VALID,0,VALID,100,VALID,0,VALID,19.0996,VALID,211,VALID,1.14931,
1999-11-24, 02:21:00,VALID,0,VALID,100,VALID,0,VALID,19.0894,VALID,216,VALID,0.959293,
1999-11-24, 02:22:00,VALID,0,VALID,100,VALID,0,VALID,19.0961,VALID,205,VALID,0.977431,
1999-11-24, 02:23:00,VALID,0,VALID,100,VALID,0,VALID,19.0932,VALID,209,VALID,0.50705,
1999-11-24, 02:24:00,VALID,0,VALID,100,VALID,0,VALID,19.0797,VALID,218,VALID,1.10525,
1999-11-24, 02:25:00,VALID,0,VALID,100,VALID,0.0169808,VALID,19.073,VALID,203,VALID,0.917969,
1999-11-24, 02:26:00,VALID,0,VALID,100,VALID,0.0169808,VALID,19.083,VALID,210,VALID,0.997466,
1999-11-24, 02:27:00,VALID,0,VALID,100,VALID,0,VALID,19.0636,VALID,218,VALID,1.12352,
1999-11-24, 02:28:00,VALID,0,VALID,100,VALID,0.0509425,VALID,19.07,VALID,204,VALID,0.564977,
1999-11-24, 02:29:00,VALID,0,VALID,100,VALID,0,VALID,19.0539,VALID,221,VALID,0.690814,
1999-11-24, 02:30:00,VALID,0,VALID,100,VALID,0,VALID,19.0405,VALID,196,VALID,0.98137,
1999-11-24, 02:31:00,VALID,0,VALID,100,VALID,0.0169808,VALID,19.0248,VALID,195,VALID,0.889358,
1999-11-24, 02:32:00,VALID,0,VALID,100,VALID,0,VALID,19.0218,VALID,211,VALID,0.860197,
1999-11-24, 02:33:00,VALID,0,VALID,100,VALID,0,VALID,19.0188,VALID,202,VALID,0.433488,
1999-11-24, 02:34:00,VALID,0,VALID,100,VALID,0.0169808,VALID,19.0049,VALID,196,VALID,0.199836,
1999-11-24, 02:35:00,VALID,0,VALID,100,VALID,0,VALID,19.0056,VALID,217,VALID,0.635268,
1999-11-24, 02:36:00,VALID,0,VALID,100,VALID,-0.0339617,VALID,19.0031,VALID,212,VALID,0.762153,
1999-11-24, 02:37:00,VALID,0,VALID,100,VALID,-0.0509425,VALID,19.0001,VALID,206,VALID,0.628167,
1999-11-24, 02:38:00,VALID,0,VALID,100,VALID,-0.0509425,VALID,18.9902,VALID,203,VALID,0.576891,
1999-11-24, 02:39:00,VALID,0,VALID,100,VALID,-0.0169808,VALID,18.9837,VALID,210,VALID,0.684375,
1999-11-24, 02:40:00,VALID,0,VALID,100,VALID,-0.0339617,VALID,18.987,VALID,214,VALID,0.581055,
1999-11-24, 02:41:00,VALID,0,VALID,100,VALID,-0.0339617,VALID,18.9971,VALID,192,VALID,0.282095,
1999-11-24, 02:42:00,VALID,0,VALID,100,VALID,-0.0169808,VALID,18.9807,VALID,186,VALID,0.561883,
1999-11-24, 02:43:00,VALID,0,VALID,100,VALID,-0.0509425,VALID,18.9613,VALID,189,VALID,0.753711,
1999-11-24, 02:44:00,VALID,0,VALID,100,VALID,-0.0679233,VALID,18.9422,VALID,195,VALID,0.78928,
1999-11-24, 02:45:00,VALID,0,VALID,100,VALID,-0.0509425,VALID,18.9193,VALID,200,VALID,0.865785,
1999-11-24, 02:46:00,VALID,0,VALID,100,VALID,-0.0849042,VALID,18.929,VALID,204,VALID,0.658361,
1999-11-24, 02:47:00,VALID,0,VALID,100,VALID,-0.0339617,VALID,18.9357,VALID,201,VALID,0.931055,
1999-11-24, 02:48:00,VALID,0,VALID,100,VALID,-0.0679233,VALID,18.9454,VALID,197,VALID,0.98758,
1999-11-24, 02:49:00,VALID,0,VALID,100,VALID,-0.0679233,VALID,18.9586,VALID,190,VALID,1.10241,
1999-11-24, 02:50:00,VALID,0,VALID,100,VALID,-0.0509425,VALID,18.9549,VALID,196,VALID,0.977509,
1999-11-24, 02:51:00,VALID,0,VALID,99.9847,VALID,-0.0509425,VALID,18.9576,VALID,196,VALID,1.02652,
1999-11-24, 02:52:00,VALID,0,VALID,99.9456,VALID,-0.0679233,VALID,18.9777,VALID,207,VALID,0.832237,
1999-11-24, 02:53:00,VALID,0,VALID,99.9151,VALID,-0.0509425,VALID,18.9907,VALID,219,VALID,0.898438,
1999-11-24, 02:54:00,VALID,0,VALID,99.8884,VALID,-0.0509425,VALID,18.9971,VALID,217,VALID,1.14959,
1999-11-24, 02:55:00,VALID,0,VALID,99.8998,VALID,-0.0509425,VALID,19.0061,VALID,217,VALID,0.954297,
1999-11-24, 02:56:00,VALID,0,VALID,99.8922,VALID,-0.0679233,VALID,19.0262,VALID,208,VALID,0.708265,
1999-11-24, 02:57:00,VALID,0,VALID,99.8578,VALID,-0.0339617,VALID,19.026,VALID,206,VALID,0.723184,
1999-11-24, 02:58:00,VALID,0,VALID,99.8426,VALID,-0.0339617,VALID,19.023,VALID,194,VALID,0.961939,
1999-11-24, 02:59:00,VALID,0,VALID,99.8032,VALID,-0.0339617,VALID,19.0131,VALID,189,VALID,1.08984,
1999-11-24, 03:00:00,VALID,0,VALID,99.7574,VALID,-0.0339617,VALID,18.9967,VALID,195,VALID,0.922676,
1999-11-24, 03:01:00,VALID,0,VALID,99.737,VALID,-0.0339617,VALID,18.9971,VALID,198,VALID,0.757179,
1999-11-24, 03:02:00,VALID,0,VALID,99.7014,VALID,-0.0679233,VALID,18.9974,VALID,206,VALID,0.936233,
1999-11-24, 03:03:00,VALID,0,VALID,99.6798,VALID,-0.0339617,VALID,18.9971,VALID,203,VALID,0.938528,
1999-11-24, 03:04:00,VALID,0,VALID,99.6264,VALID,-0.0849042,VALID,19.0064,VALID,199,VALID,0.964021,
1999-11-24, 03:05:00,VALID,0,VALID,99.4738,VALID,0,VALID,19.0297,VALID,202,VALID,0.904297,
1999-11-24, 03:06:00,VALID,0,VALID,99.3517,VALID,-0.0509425,VALID,19.0493,VALID,198,VALID,0.925576,
1999-11-24, 03:07:00,VALID,0,VALID,99.2437,VALID,-0.0339617,VALID,19.0516,VALID,198,VALID,0.988932,
1999-11-24, 03:08:00,VALID,0,VALID,99.1178,VALID,-0.0509425,VALID,19.0747,VALID,202,VALID,0.769626,
1999-11-24, 03:09:00,VALID,0,VALID,99.0097,VALID,-0.0169808,VALID,19.0812,VALID,204,VALID,0.70855,
1999-11-24, 03:10:00,VALID,0,VALID,98.9486,VALID,0,VALID,19.0842,VALID,220,VALID,0.407617,
1999-11-24, 03:11:00,VALID,0,VALID,98.9067,VALID,-0.0509425,VALID,19.0909,VALID,214,VALID,0,
1999-11-24, 03:12:00,VALID,0,VALID,98.8685,VALID,-0.0509425,VALID,19.0782,VALID,221,VALID,0,
1999-11-24, 03:13:00,VALID,0,VALID,98.8584,VALID,-0.0679233,VALID,19.0717,VALID,214,VALID,0,
1999-11-24, 03:14:00,VALID,0,VALID,98.8889,VALID,-0.0679233,VALID,19.0717,VALID,215,VALID,0,
1999-11-24, 03:15:00,VALID,0,VALID,98.8965,VALID,-0.101885,VALID,19.072,VALID,206,VALID,0,
1999-11-24, 03:16:00,VALID,0,VALID,98.8545,VALID,-0.0339617,VALID,19.0523,VALID,192,VALID,0,
1999-11-24, 03:17:00,VALID,0,VALID,98.7935,VALID,-0.0339617,VALID,19.0034,VALID,188,VALID,0,
1999-11-24, 03:18:00,VALID,0,VALID,98.7274,VALID,-0.0169808,VALID,18.978,VALID,186,VALID,0,
1999-11-24, 03:19:00,VALID,0,VALID,98.7223,VALID,-0.0509425,VALID,18.9459,VALID,183,VALID,0,
1999-11-24, 03:20:00,VALID,0,VALID,98.8393,VALID,-0.0169808,VALID,18.9285,VALID,178,VALID,0,
1999-11-24, 03:21:01,VALID,0,VALID,98.8444,VALID,0.0679233,VALID,18.9089,VALID,168,VALID,0.672309,
1999-11-24, 03:22:00,VALID,0,VALID,98.8774,VALID,0.0679233,VALID,18.85,VALID,161,VALID,0.83087,
1999-11-24, 03:23:00,VALID,0,VALID,98.9283,VALID,0.0169808,VALID,18.847,VALID,153,VALID,0.941817,
1999-11-24, 03:24:00,VALID,0,VALID,98.997,VALID,0.0509425,VALID,18.8311,VALID,155,VALID,1.05022,
1999-11-24, 03:25:00,VALID,0,VALID,99.03,VALID,0.0169808,VALID,18.8343,VALID,153,VALID,0.941602,
1999-11-24, 03:26:00,VALID,0,VALID,99.1038,VALID,0.0509425,VALID,18.8306,VALID,163,VALID,1.07686,
1999-11-24, 03:27:00,VALID,0,VALID,99.1826,VALID,0.0849042,VALID,18.85,VALID,161,VALID,1.0662,
1999-11-24, 03:28:00,VALID,0,VALID,99.1572,VALID,0.0509425,VALID,18.8542,VALID,155,VALID,0.781445,
1999-11-24, 03:29:00,VALID,0,VALID,99.1572,VALID,0.0339617,VALID,18.8376,VALID,146,VALID,0.914931,
1999-11-24, 03:30:00,VALID,0,VALID,99.1852,VALID,0.0339617,VALID,18.8276,VALID,150,VALID,0.661659,
1999-11-24, 03:31:00,VALID,0,VALID,99.1318,VALID,0.0509425,VALID,18.8048,VALID,159,VALID,0.567779,
1999-11-24, 03:32:01,VALID,0,VALID,99.1623,VALID,0.0339617,VALID,18.8018,VALID,169,VALID,0.381055,
1999-11-24, 03:33:01,VALID,0,VALID,99.1661,VALID,0.0339617,VALID,18.7921,VALID,179,VALID,0.242989,
1999-11-24, 03:34:00,VALID,0,VALID,99.2106,VALID,0.0679233,VALID,18.7918,VALID,197,VALID,0.362542,
1999-11-24, 03:35:00,VALID,0,VALID,99.3123,VALID,0.0169808,VALID,18.8018,VALID,190,VALID,0.4,
1999-11-24, 03:36:00,VALID,0,VALID,99.3314,VALID,0.0339617,VALID,18.8082,VALID,186,VALID,0.358758,
1999-11-24, 03:37:00,VALID,0,VALID,99.3225,VALID,0.0509425,VALID,18.8276,VALID,156,VALID,0.0546875,
1999-11-24, 03:38:00,VALID,0,VALID,99.2958,VALID,0.0849042,VALID,18.8179,VALID,139,VALID,0,
1999-11-24, 03:39:00,VALID,0,VALID,99.2691,VALID,0.0509425,VALID,18.7985,VALID,132,VALID,0,
1999-11-24, 03:40:00,VALID,0,VALID,99.264,VALID,0.0679233,VALID,18.799,VALID,123,VALID,0,
1999-11-24, 03:41:00,VALID,0,VALID,99.264,VALID,0.0679233,VALID,18.7821,VALID,123,VALID,0,
1999-11-24, 03:42:00,VALID,0,VALID,99.2525,VALID,0.0509425,VALID,18.7759,VALID,123,VALID,0,
1999-11-24, 03:43:00,VALID,0,VALID,99.2716,VALID,0,VALID,18.7923,VALID,123,VALID,0,
1999-11-24, 03:44:00,VALID,0,VALID,99.2665,VALID,0.0679233,VALID,18.7953,VALID,122,VALID,0,
1999-11-24, 03:45:00,VALID,0,VALID,99.2208,VALID,0.0509425,VALID,18.7826,VALID,120,VALID,0,
1999-11-24, 03:46:00,VALID,0,VALID,99.1953,VALID,0.0679233,VALID,18.7667,VALID,129,VALID,0,
1999-11-24, 03:47:00,VALID,0,VALID,99.2233,VALID,0.0169808,VALID,18.7597,VALID,136,VALID,0,
1999-11-24, 03:48:00,VALID,0,VALID,99.2335,VALID,0.0339617,VALID,18.7597,VALID,137,VALID,0,
1999-11-24, 03:49:00,VALID,0,VALID,99.2208,VALID,0.0679233,VALID,18.7565,VALID,155,VALID,0,
1999-11-24, 03:50:00,VALID,0,VALID,99.1915,VALID,0.0509425,VALID,18.7374,VALID,173,VALID,0,
1999-11-24, 03:51:00,VALID,0,VALID,99.1763,VALID,0.0509425,VALID,18.7182,VALID,199,VALID,0.311883,
1999-11-24, 03:52:00,VALID,0,VALID,99.2208,VALID,0.0339617,VALID,18.6852,VALID,192,VALID,0.716363,
1999-11-24, 03:53:00,VALID,0,VALID,99.2958,VALID,0.0509425,VALID,18.6923,VALID,165,VALID,0.579649,
1999-11-24, 03:54:00,VALID,0,VALID,99.2042,VALID,0.0509425,VALID,18.66,VALID,162,VALID,0.490234,
1999-11-24, 03:55:00,VALID,0,VALID,99.1228,VALID,0.0679233,VALID,18.5921,VALID,151,VALID,0.464648,
1999-11-24, 03:56:00,VALID,0,VALID,99.1127,VALID,0.0679233,VALID,18.5464,VALID,137,VALID,0.488809,
1999-11-24, 03:57:00,VALID,0,VALID,99.1368,VALID,0.0509425,VALID,18.5374,VALID,133,VALID,0.557855,
1999-11-24, 03:58:00,VALID,0,VALID,99.1559,VALID,0.0339617,VALID,18.4915,VALID,132,VALID,0.558689,
1999-11-24, 03:59:00,VALID,0,VALID,99.1839,VALID,0.0679233,VALID,18.4624,VALID,137,VALID,0.508286,
1999-11-24, 04:00:00,VALID,0,VALID,99.2665,VALID,0.0339617,VALID,18.4696,VALID,159,VALID,0.584736,
1999-11-24, 04:01:00,VALID,0,VALID,99.3568,VALID,0.0339617,VALID,18.4721,VALID,183,VALID,0.600296,
1999-11-24, 04:02:00,VALID,0,VALID,99.4458,VALID,0.0509425,VALID,18.4855,VALID,196,VALID,0.682977,
1999-11-24, 04:03:00,VALID,0,VALID,99.5069,VALID,0.0679233,VALID,18.5118,VALID,185,VALID,0.683699,
1999-11-24, 04:04:00,VALID,0,VALID,99.5806,VALID,0.0339617,VALID,18.5141,VALID,196,VALID,1.02755,
1999-11-24, 04:05:00,VALID,0,VALID,99.6989,VALID,0.0339617,VALID,18.5661,VALID,205,VALID,0.923214,
1999-11-24, 04:06:01,VALID,0,VALID,99.7281,VALID,0.0339617,VALID,18.5921,VALID,202,VALID,0.751302,
1999-11-24, 04:07:00,VALID,0,VALID,99.7688,VALID,0.0509425,VALID,18.6051,VALID,205,VALID,0.658784,
1999-11-24, 04:08:00,VALID,0,VALID,99.8248,VALID,0.0169808,VALID,18.6247,VALID,200,VALID,0.847245,
1999-11-24, 04:09:00,VALID,0,VALID,99.8667,VALID,0.0169808,VALID,18.6409,VALID,200,VALID,0.632366,